Regional Weather Roundup
Issued by NWS Portland, ME

Home | Current Version | Previous Version | Text Only | Print | Product List | Glossary On
Versions: 1 2 3 4 5 6 7 8 9 10 11 12 13 14 15 16 17 18 19 20 21 22 23 24 25 26 27 28 29 30 31 32 33 34 35 36 37 38 39 40 41 42 43 44 45 46 47 48 49 50
000
ASUS41 KGYX 031210
RWRGYX
WEATHER ROUNDUP FOR MAINE AND NEW HAMPSHIRE
NATIONAL WEATHER SERVICE GRAY ME
800 AM EDT TUE MAY 03 2016

MEZ002-005-006-010-012-015-018-020-021-024-026-027-029-031300-
MAINE

CITY           SKY/WX    TMP DP  RH WIND       PRES   REMARKS
PORTLAND       CLOUDY    43  40  89 CALM      29.94S
6HR MIN TEMP:  41; 6HR MAX TEMP:  43;

SANFORD        CLOUDY    43  39  87 CALM      29.94S
BAR HARBOR     CLOUDY    43  41  93 N5        29.90S
WISCASSET      CLOUDY    44  41  89 CALM      29.93F
6HR MIN TEMP:  42; 6HR MAX TEMP:  44;

ROCKLAND       CLOUDY    43  40  89 NW3       29.92R
FRYEBURG       CLOUDY    43  42  97 CALM      29.92S
6HR MIN TEMP:  36; 6HR MAX TEMP:  43;

LEWISTONAUBURN CLOUDY    43  37  81 CALM      29.92F
AUGUSTA        MOSUNNY   44  40  85 N3        29.92S
6HR MIN TEMP:  40; 6HR MAX TEMP:  44;

WATERVILLE     CLOUDY    42  40  92 N3        29.89S
BANGOR         CLOUDY    47  41  80 VRB6      29.91R
6HR MIN TEMP:  43; 6HR MAX TEMP:  47;

GREENVILLE       N/A     36  36 100 NW8       29.86R
6HR MIN TEMP:  35; 6HR MAX TEMP:  36;

MILLINOCKET    CLOUDY    44  39  82 N6        29.90S
6HR MIN TEMP:  38; 6HR MAX TEMP:  44;

HOULTON        CLOUDY    42  39  89 N9        29.87F FOG
6HR MIN TEMP:  40; 6HR MAX TEMP:  42; 6HR PCP:  0.05;

PRESQUE ISLE   CLOUDY    40  38  93 N10       29.91S
6HR MIN TEMP:  40; 6HR MAX TEMP:  40; 6HR PCP:  0.06;

FRENCHVILLE    CLOUDY    38  35  89 NE8       29.91S
6HR MIN TEMP:  37; 6HR MAX TEMP:  38; 6HR PCP:  0.02;

CARIBOU        CLOUDY    41  37  86 N10       29.90S
6HR MIN TEMP:  39; 6HR MAX TEMP:  41; 6HR PCP:  0.14;

$$

NHZ002-005-008-009-011-012-014-031300-
NEW HAMPSHIRE

CITY           SKY/WX    TMP DP  RH WIND       PRES   REMARKS
PORTSMOUTH     CLOUDY    45  43  93 SE2       29.92S
ROCHESTER      CLOUDY    44  41  89 CALM      29.92S
6HR MIN TEMP:  41; 6HR MAX TEMP:  44;

NASHUA         CLOUDY    46  45  96 CALM      29.93F
MANCHESTER     CLOUDY    46  43  89 CALM      29.91F
6HR MIN TEMP:  44; 6HR MAX TEMP:  46; 6HR PCP: TRACE;

CONCORD        CLOUDY    45  43  93 CALM      29.93S
6HR MIN TEMP:  41; 6HR MAX TEMP:  45;

LACONIA        CLOUDY    45  39  81 SW5       29.92S
PLYMOUTH       CLOUDY    46  39  77 W3        29.91S
BERLIN         LGT RAIN  42  39  89 CALM      29.90S
6HR MIN TEMP:  40; 6HR MAX TEMP:  42; 6HR PCP: TRACE;

WHITEFIELD     CLOUDY    43  39  86 N3        29.91S
6HR MIN TEMP:  42; 6HR MAX TEMP:  43;

JAFFREY        CLOUDY    45  42  89 CALM      29.91S
6HR MIN TEMP:  43; 6HR MAX TEMP:  45; 6HR PCP:  0.02;

KEENE          CLOUDY    46  45  93 CALM      29.93S
LEBANON        CLOUDY    45  42  89 CALM      29.92R
6HR MIN TEMP:  42; 6HR MAX TEMP:  45;

MT WASHINGTON  CLOUDY    30  27  86 NW20        N/A  WCI  18
6HR MIN TEMP:  25; 6HR MAX TEMP:  31; 6HR PCP: TRACE;

$$

VTZ005-007-008-031300-
VERMONT

CITY           SKY/WX    TMP DP  RH WIND       PRES   REMARKS
ST JOHNSBURY     N/A     44  40  85 MISG      29.91S
MONTPELIER     CLOUDY    41  38  89 N3        29.96R
BURLINGTON     CLOUDY    44  39  82 N6        29.95S
$$

MAZ007-012-024-CTZ003-RIZ002-NYZ038-NYZ072-031300-
SOUTHERN NEW ENGLAND AND NY

CITY           SKY/WX    TMP DP  RH WIND       PRES   REMARKS
BOSTON         LGT RAIN  46  43  89 NE7       29.93F
WORCESTER      LGT RAIN  45  44  97 E6        29.90R VSB 1/4
NANTUCKET      LGT RAIN  47  44  90 NE10      29.91F
PROVIDENCE     RAIN      48  46  93 E8        29.91F FOG
HARTFORD       LGT RAIN  48  47  96 N3        29.89F FOG
ALBANY         CLOUDY    47  41  80 NE6       29.93R
NEW YORK CITY  LGT RAIN  54  50  86 NE9       29.87S
$$

ANZ081-ANZ082-ANZ150-NHZ014-MEZ023>029-031300-
COASTAL MARINE OBSERVATIONS

STATION/POSITION TIME  TEMP    WIND        PRES    WAVE
                       AIR SEA DIR/SP/G            HT/PER
                 (UTC) (F)     (DEG/KT/KT) (MB)    (FT/S)
MOUNT DESERT ROC 1200   42     290/ 10/ 11 1012.4S
MATINICUS ROCK   1200   42     300/  9/ 10 1012.7R
ISLE OF SHOALS   1200   44      80/  2/  2 1013.3R
CASHES LEDGE BUO 1150   43 44  300/  6/  8 1013.0R   4/ 6
GEORGES BANK BUO 1150   46 46              1013.3S   5/ 8
$$

.............KEY..............
   WCI - WIND CHILL
   TC  - TEMPERATURE IN CELSIUS
   VSB - VISIBILITY IN MILES
   HX  - HEAT INDEX
   FAIR- INDICATES FEW OR NO CLOUDS BELOW 12,000 FT, WITH NO
         SIGNIFICANT WEATHER AND/OR OBSTRUCTIONS TO VISIBILITY.





USA.gov is the U.S. government's official web portal to all federal, state and local government web resources and services.